Regional Weather Roundup
Issued by NWS

Home | Current Version | Previous Version | Text Only | Print | Product List | Glossary On
Versions: 1 2 3 4 5 6 7 8 9 10 11 12 13 14 15 16 17 18 19 20 21 22 23 24 25 26 27 28 29 30 31 32 33 34 35 36 37 38 39 40 41 42 43 44 45 46 47 48 49 50
000
ASUS44 KEWX 031811
RWRTX
SOUTH TEXAS REGIONAL WEATHER ROUNDUP
NATIONAL WEATHER SERVICE AUSTIN/SAN ANTONIO TX
100 PM CDT MON AUG 03 2015

NOTE: "FAIR" INDICATED FEW OR NO CLOUDS BELOW 12,000 FEET WITH NO
SIGNIFICANT WEATHER AND/OR OBSTRUCTIONS TO VISIBILITY.

* - THESE STATIONS ARE NOT NWS OR FAA STATIONS...AND ARE NOT SUBJECT
    TO NWS AND FAA QUALITY CONTROL.

TXZ171-172-183>190-031900-
TEXAS HILL COUNTRY AND EDWARDS PLATEAU

CITY           SKY/WX    TMP DP  RH WIND       PRES   REMARKS
JUNCTION       SUNNY     94  60  32 MISG      29.96F HX  94
6HR MIN TEMP:  70; 6HR MAX TEMP:  95;

*LLANO         SUNNY     93  61  33 E7        29.97F HX  93
BURNET         SUNNY     92  60  34 CALM      29.97F HX  91
6HR MIN TEMP:  75; 6HR MAX TEMP:  93;

*HORSESHOE BAY SUNNY     94  61  32 SE7       29.95F HX  94
6HR MIN TEMP:  73; 6HR MAX TEMP:  95;

*KERRVILLE     SUNNY     92  66  42 E6        29.98F HX  94
6HR MIN TEMP:  72; 6HR MAX TEMP:  92;

*FREDERICKSBRG SUNNY     90  61  38 SW3       29.97F
6HR MIN TEMP:  67; 6HR MAX TEMP:  90;

*ROCKSPRINGS   SUNNY     91  61  35 S9        30.02F HX  91
*BOERNE STAGE  SUNNY     88  61  40 S5        29.97S
*CASTROVILLE   SUNNY     95  59  30 E5        29.94S HX  94
HONDO          SUNNY     94  65  38 MISG      29.95F HX  96
6HR MIN TEMP:  70; 6HR MAX TEMP:  94;

*UVALDE        SUNNY     92  66  42 E3        29.93F HX  94
6HR MIN TEMP:  70; 6HR MAX TEMP:  92;

DEL RIO        SUNNY     96  62  32 SE9       29.90F HX  97
6HR MIN TEMP:  75; 6HR MAX TEMP:  96;

LAUGHLIN AFB   SUNNY     95  64  36 VRB5G25   29.91F HX  96
6HR MIN TEMP:  73; 6HR MAX TEMP:  95;

CARRIZO SPRGS  SUNNY     93  66  40 E9        29.89F HX  96
$$

TXZ173-191>194-202-209-217>225-228-031900-
CENTRAL AND SOUTH CENTRAL TEXAS

CITY           SKY/WX    TMP DP  RH WIND       PRES   REMARKS
GEORGETOWN     SUNNY     93  61  33 E6        29.93F HX  93
AUSTIN/BERGSTM MOSUNNY   94  62  34 VRB3      29.92F HX  94
6HR MIN TEMP:  69; 6HR MAX TEMP:  95;

AUSTIN/MABRY   SUNNY     95  61  32 VRB5      29.94F HX  95
6HR MIN TEMP:  75; 6HR MAX TEMP:  95;

*AUSTIN/EXEC   SUNNY     93  63  36 SE12      29.94S HX  94
*LAGO VISTA    MOSUNNY   94  59  30 E3        29.96F HX  93
6HR MIN TEMP:  77; 6HR MAX TEMP:  94;

SAN MARCOS     SUNNY     93  63  36 SE8       29.93F HX  94
NEW BRAUNFELS  SUNNY     97  63  32 VRB6G17   29.91F HX  98
6HR MIN TEMP:  74; 6HR MAX TEMP:  97;

RANDOLPH AFB   SUNNY     93  62  35 E8        29.93F HX  93
6HR MIN TEMP:  75; 6HR MAX TEMP:  93;

PT SAN ANTONIO SUNNY     94  62  34 VRB1      29.91F HX  94
6HR MIN TEMP:  73; 6HR MAX TEMP:  94;

SAN ANTONIO    MOSUNNY   94  62  34 E10       29.93F HX  94
6HR MIN TEMP:  77; 6HR MAX TEMP:  96;

STINSON FIELD  SUNNY     95  59  30 E12       29.90F HX  94
6HR MIN TEMP:  74; 6HR MAX TEMP:  95;

*PLEASANTON    SUNNY     95  64  35 E8        29.91F HX  97
*LA GRANGE     SUNNY     92  69  45 CALM      29.91F HX  97
6HR MIN TEMP:  71; 6HR MAX TEMP:  92;

*GIDDINGS      MOSUNNY   93  64  37 SE8       29.96F HX  95
6HR MIN TEMP:  69; 6HR MAX TEMP:  94;

*GONZALES      CLOUDY    92  68  45 S5        29.91F HX  97
6HR MIN TEMP:  71; 6HR MAX TEMP:  93;

$$

TXZ163>164-176>182-195>201-210>213-226-227-235-031900-
SOUTHEAST TEXAS

CITY           SKY/WX    TMP DP  RH WIND       PRES   REMARKS
COLLEGE STN    SUNNY     94  63  35 E9        29.93F HX  95
6HR MIN TEMP:  74; 6HR MAX TEMP:  94;

*BRYAN         MOSUNNY   95  65  37 SE8       29.94F HX  97
6HR MIN TEMP:  68; 6HR MAX TEMP:  95;

*CALDWELL      SUNNY     91  61  35 NE7       29.96F HX  91
*CROCKETT        N/A     95  68  41 SW3       29.96F HX  99
*BRENHAM       SUNNY     93  69  44 SE5       29.93F HX  98
6HR MIN TEMP:  72; 6HR MAX TEMP:  93;

HUNTSVILLE     MOSUNNY   95  65  37 E3        29.93F HX  97
6HR MIN TEMP:  71; 6HR MAX TEMP:  95;

CONROE         SUNNY     93  59  31 VRB5      29.93F HX  92
6HR MIN TEMP:  69; 6HR MAX TEMP:  94;

HOUSTON BUSH   MOSUNNY   95  67  39 VRB3      29.92F HX  99
6HR MIN TEMP:  73; 6HR MAX TEMP:  96;

HOUSTON HOBBY  MOSUNNY   95  67  39 VRB5      29.91F HX  99
6HR MIN TEMP:  77; 6HR MAX TEMP:  95;

*HOUSTON SW AP MOSUNNY   94  69  42 S7        29.92F HX  99
6HR MIN TEMP:  70; 6HR MAX TEMP:  94;

PEARLAND       MOSUNNY   93  68  43 CALM      29.93F HX  97
6HR MIN TEMP:  76; 6HR MAX TEMP:  94;

HOUSTON HOOKS  MOSUNNY   93  69  45 SE8       29.92F HX  98
6HR MIN TEMP:  71; 6HR MAX TEMP:  94;

ELLINGTON FLD  MOSUNNY   95  72  46 CALM      29.93F HX 103
SUGAR LAND     MOSUNNY   92  70  48 CALM      29.91F HX  97
6HR MIN TEMP:  71; 6HR MAX TEMP:  94;

*HOUSTON EXEC  MOSUNNY   91  68  46 E5        29.93F HX  95
*CLEVELAND MUN MOSUNNY   92  70  47 CALM      29.94F HX  98
6HR MIN TEMP:  68; 6HR MAX TEMP:  93;

*WHARTON       MOSUNNY   91  69  48 W5        29.93F HX  95
6HR MIN TEMP:  71; 6HR MAX TEMP:  92;

*COLUMBUS      FAIR      91  68  47 S6        29.92F HX  94
6HR MIN TEMP:  71; 6HR MAX TEMP:  91;

*EAGLE LAKE    MOCLDY    90  69  50 CALM      29.92F HX  95
6HR MIN TEMP:  71; 6HR MAX TEMP:  91;

$$

TXZ214>216-236>238-031900-
THE UPPER TEXAS COAST

CITY           SKY/WX    TMP DP  RH WIND       PRES   REMARKS
*ORANGE        MOSUNNY   94  55  26 CALM      29.92F HX  92
6HR MIN TEMP:  71; 6HR MAX TEMP:  94;

PORT ARTHUR    MOSUNNY   95  66  38 SE3       29.91F HX  98
6HR MIN TEMP:  74; 6HR MAX TEMP:  96;

GALVESTON      SUNNY     91  73  55 E5        29.93F HX  99
6HR MIN TEMP:  82; 6HR MAX TEMP:  93;

ANGLETON       PTSUNNY   92  72  51 VRB5      29.91F HX  99
6HR MIN TEMP:  74; 6HR MAX TEMP:  93;

*BAY CITY      CLOUDY    91  72  53 W3        29.91F HX  98
PALACIOS       SUNNY     92  73  53 S10       29.92F HX 100
6HR MIN TEMP:  76; 6HR MAX TEMP:  93;

$$

TXZ229>234-239>247-031900-
TEXAS COASTAL BEND AND RIO GRANDE PLAINS

CITY           SKY/WX    TMP DP  RH WIND       PRES   REMARKS
VICTORIA       MOSUNNY   92  71  50 VRB6      29.92F HX  98
6HR MIN TEMP:  70; 6HR MAX TEMP:  92;

*BEEVILLE      HAZE      90  75  61 S8        29.91F VSB 3/4 HX  99
6HR MIN TEMP:  69; 6HR MAX TEMP:  91;

ROCKPORT       MOSUNNY   91  75  59 SE14G20   29.91S HX 101
6HR MIN TEMP:  76; 6HR MAX TEMP:  92;

*PORT ARANSAS  SUNNY     88  77  70 SE8       29.92S HX  99
6HR MIN TEMP:  81; 6HR MAX TEMP:  89;

*PORT LAVACA   MOSUNNY   89  74  62 SE9       29.92S HX  98
6HR MIN TEMP:  73; 6HR MAX TEMP:  91;

*INGLESIDE     PTSUNNY   92  74  54 SE13      29.91S HX 101
CORPUS CHRISTI LGT RAIN  85  73  67 E15       29.90F HX  91
6HR MIN TEMP:  74; 6HR MAX TEMP:  90; 6HR PCP: TRACE;

CORPUS NAS     MOSUNNY   89  77  67 SE14      29.91S HX 101
6HR MIN TEMP:  78; 6HR MAX TEMP:  89;

*ROBSTOWN      PTSUNNY   93  71  47 S12       29.89F HX 100
6HR MIN TEMP:  75; 6HR MAX TEMP:  95;

ALICE          MOSUNNY   95  72  47 VRB6G17   29.89F HX 103
6HR MIN TEMP:  72; 6HR MAX TEMP:  96;

KINGSVILLE NAS PTSUNNY   95  77  55 SE7       29.88F HX 109
6HR MIN TEMP:  74; 6HR MAX TEMP:  95;

COTULLA        MOSUNNY   96  65  35 SE13G18   29.89F HX  98
6HR MIN TEMP:  74; 6HR MAX TEMP:  96;

*FAITH RANCH     N/A     97  59  28 SE10G18   29.89F HX  96
LAREDO         SUNNY     95  65  37 VRB6      29.89F HX  97
6HR MIN TEMP:  75; 6HR MAX TEMP:  96;

$$

TXZ248>255-031900-
DEEP SOUTH TEXAS

CITY           SKY/WX    TMP DP  RH WIND       PRES   REMARKS
BROWNSVILLE    SUNNY     94  71  47 S18G25    29.89F HX 101
6HR MIN TEMP:  79; 6HR MAX TEMP:  94;

PORT ISABEL    MOSUNNY   94  73  50 SE15G24   29.88F HX 103
6HR MIN TEMP:  80; 6HR MAX TEMP:  95;

*SOUTH PADRE   SUNNY     88  79  74 SE12      29.90F HX 102


USA.gov is the U.S. government's official web portal to all federal, state and local government web resources and services.